Tracking 19489 objects as of 22-Jan-2019
HD Live streaming from Space Station
objects crossing your sky now

BIRD MM

Track BIRD MM now!
10-day predictions
BIRD MM is classified as:


NORAD ID: 42822
Int'l Code: 1998-067MW
Perigee: 333.2 km
Apogee: 333.8 km
Inclination: 51.6 °
Period: 91.1 minutes
Semi major axis: 6704 km
RCS: Unknown
Launch date: November 20, 1998
Source: (MNG)
Launch site: TYURATAM MISSILE AND SPACE COMPLEX (TTMTR)

Uplink (MHz):
Downlink (MHz): 437.375
Beacon (MHz): 437.372
Mode: 1k2AFSK 9k6GMSK CW
Call sign: JG6YJQ
Status: Active

aabbcc
Your satellite tracking list
Your tracking list is empty




NASA's NSSDC Master Catalog

Two Line Element Set (TLE):
1 42822U 98067MW  19022.13851854  .00044602  00000-0  22210-3 0  9993
2 42822  51.6336 318.0215 0000463  64.4388 295.6662 15.81437154 88304
Source of the keplerian elements: AMSAT